User: anonymous
Location: Brno
(49.2000°N, 16.6330°E)
Time: 00:54:35
(UTC+02:00)
Language:

Cosmos 1459 Rocket - Orbit

View from above orbital plane
View from above orbital plane
View from above satellite
View from above satellite

Ground track
Ground track

The orbit data is extracted from the following two-line orbital elements,

1 14059U 83042B   14209.81618351  .00000052  00000-0  36212-4 0  3646
2 14059 082.9735 124.4565 0042198 349.8140 068.5242 13.78453667570497
Epoch (UTC): 28 July 2014 19:35:18
Eccentricity: 0.0042198
inclination: 82.9735°
perigee height: 938 km
apogee height: 1000 km
right ascension of ascending node: 124.4565°
argument of perigee: 349.8140°
revolutions per day: 13.78453667
mean anomaly at epoch: 68.5242°
orbit number at epoch: 57049

The dashed part of the orbit path shows where the satellite is in the earth's shadow,  

DLR